コワル第2彗星

104P/Kowal 2 (2010)

English version
Home page
Updated on January 11, 2010

---------------------------------------------------------------------

・ プロフィール

・ 軌道要素

The following orbital elements are taken from MPC 59599:

Epoch 2010 May 4.0 TT = JDT 2455320.5
T 2010 May 4.6352 TT                                    MPC
q   1.179649             (2000.0)            P               Q
n   0.1674444      Peri.  200.5547      +0.2453561      -0.9582326
a   3.260035       Node   235.5163      +0.9124776      +0.2794605
e   0.638148       Incl.   10.2684      +0.3273911      -0.0607627
P   5.89
From 458 observations 1991-2004, mean residual 1".0.  Nongravitational
     parameters A1 = +0.61, A2 = -0.5165.

・ 星図

・ 光度変化

        m1 = 12.2 + 5 logΔ + 16.5 log r

---------------------------------------------------------------------

軌道要素はMPCのEphemerides and Orbital Elementsに掲載されたものです。
星図はステラナビゲータ Ver.8 (アストロアーツ) で作成したものです。
光度グラフはComet for Windowsで作成したものです。

---------------------------------------------------------------------

Copyright(C) Seiichi Yoshida (comet@aerith.net). All rights reserved.